FALCON 9 R/B, 60234

Orbit data source: Space-Track

FALCON 9 R/B, 60234 is space debris in HEO originally from a launch on Mon, 08 Jul 2024 UTC launched from the Air Force Eastern Test Range (AFETR). Debris objects in space refer to the collection of defunct objects orbiting the Earth. Examples of debris include non-operational satellites, rocket bodies, and fragments generated from explosions, collisions, or faulty payload assembly.

Loading next visibility...
Identifier
60234, 2024-127B
Orbit
HEO
Country
Flag of USUS
Related business
Manufacturer
SpaceX
Mission
Spacecraft
Bus & Motor
F9ST2, Unknown motor
Mass
~4,000 kg wet, ~4,000 kg dry
Launch date (UTC)
2024-07-08 (1 year ago)
Launch vehicle
Unknown
Launch site
Air Force Eastern Test Range (AFETR)
Object type
Payload
Rocket body
Debris
Shape & HBR
Cyl, 7.8 m
Radar Cross Section
39.980 m², Large (>1 m²)

Expand to show TLE details & history
Last TLE update: 3 days ago

TLE from 3 days ago
0 FALCON 9 R/B
1 60234U 24127B   25291.95531530 -.00000186  00000-0  97046-3 0  9996
2 60234  26.0667  45.3388 8326557 293.3163   4.7301  1.03880672  4585
Epoch: 2025-10-18T22:55Z
TLE epoch observation values (Epoch: 2025-10-18T22:55:39.241Z)
Latitude
0.0005°
Longitude
33.52398°
Altitude
3,101.368 km
Speed
8.626 km/s
True Right ascension
03h 00m 27s
True Declination
0° 00' 02"
Sunlit
Object was in full shadow at epoch
Visualization orbit readout
Latitude
Unknown
Longitude
Unknown
Altitude
Unknown
Speed
Unknown
Apparent Right ascension
Unknown
Apparent Declination
Unknown
Sunlit
N/A
Visualization observer readout
Local Sidereal Time
05:15:49
Azimuth
Unknown
Elevation
Unknown
Doppler factor
Unknown
Orbital elements
Apogee altitude
69,103.329 km
Perigee altitude
514.261 km
Semi-major axis
41,186.932 km
Eccentricity
0.83266
Inclination
26.0667°
RAAN
45.3388°
Arg. of periapsis
293.3163°
True anomaly
71.52902°
Mean anomaly
4.7301°
Eccentric anomaly
24.55832°
Mean motion
0.25966 °/min
Orbital period
1,386.43 mins
BSTAR
0.00097046
Loading maneuver chart data...
Computing Atmospheric mass density...
Loading historical data...
Loading historical data...
Loading historical data...
Loading historical data...
Loading historical data...
Loading historical data...
Loading historical data...
Other satellites on launch #127 in the year 2024 (2024-07-08 UTC)

Documentation

Showing up to 5 results
|